COSMOS 2497

Satellite information

Favourite Embed

Satellite Type and Status

PAYLOADIN ORBIT

Key statistics

Satellite COSMOS 2497 at a glance.

Uptime

4222

Days in orbit

Revolutions

≈ 12.4

Per day

Orbit

LEO

Low Earth Orbit

Inclination

82.4

Latest

Satellite identification and parameters

Extended collection of information and parameters for COSMOS 2497.

Object identification

Identified? True

Debris? False

Object name: COSMOS 2497

International designator: 2014-028B

Object number (NORAD): 39762

Object ID (CCSDS): 39762

Country: COMMONWEALTH OF INDEPENDENT STATES (CIS)

Current information (Y/N): Y

RCS size: LARGE

Orbital parameters

Period: 115.861 minutes

Inclination: 82.4499 deg

SMA: 7872.593 km

Apoapsis: 1510.664 km

Periapsis: 1478.251 km

RAAN: 227.3606 deg

Eccentricy: 0.0020586

Argument of periapsis: 119.9021 deg

Mean anomaly: 240.4107 deg

Mean motion: 12.42871127 rev/day

Mean motion (dot): 0.00000095 rev/day2

B* drag term: 0.00061113762 1/REarth

Two-line elements (TLE)

Creation date: Dec. 12, 2025, 10:14 a.m.

Reference frame: TEME

Reference center: EARTH

Epoch: Dec. 12, 2025, 7:47 a.m. UTC

TLE line 0: 0 COSMOS 2497

TLE line 1: 1 39762U 14028B 25346.32493103 .00000095 00000-0 61114-3 0 9997

TLE line 2: 2 39762 82.4499 227.3606 0020586 119.9021 240.4107 12.42871127524302

Live tracking on map

Real-time ground track for satellite COSMOS 2497.

In-orbit conjunctions

There are no conjunctions computed for COSMOS 2497, at the moment. Check back to stay up to date, as we update our databases every day.

Go to all conjunctions

Associated space launch

Classified payload for Russia

COSMOS 2497 was lifted into orbit during the mission ‘Rokot / Briz-KM | 3x Strela-3M (Kosmos 2496, Kosmos 2497, Kosmos 2498) & Kosmos 2499’, on board a Rokot/Briz-KM space rocket.

The launch took place on May 23, 2014, 5:27 a.m. from 133/3 (133L).

For more information about the launch, click the button.

Launch to space Rokot / Briz-KM | 3x Strela-3M (Kosmos 2496, Kosmos 2497, Kosmos 2498) & Kosmos 2499
Rokot / Briz-KM | 3x Strela-3M (Kosmos 2496, Kosmos 2497, Kosmos 2498) & Kosmos 2499

Agency: N/A

Status: Launch Successful

Launch date: May 23, 2014, 5:27 a.m. UTC

Rocket: Rokot/Briz-KM

Launch pad: 133/3 (133L)

Location: Plesetsk Cosmodrome, Russian Federation

...

Latest news about this satellite

There are no fresh news available about this satellite. Check back as we update our databases every day.


Newsletter sign-up

Weekly statistics, charts and insights to help you stay on top of the space industry.